Location: �mondeville
(49.4591°N, 1.3431°W)
Time: 00:53:59
(UTC+00:00)

Cosmos 2219 Rocket - Pass Details

Date: 22 October 2019
Orbit: 828 x 846 km, 71.0° (Epoch: 16 November)

Event Time Altitude Azimuth Distance (km) Brightness Sun altitude
Exits shadow 02:21:37 22° 61° (ENE) 1,737 4.3 -40.3°
Drops below altitude 10° 02:23:57 10° 44° (NE) 2,444 5.3 -40.0°
Sets 02:26:35 0° 35° (NE) 3,384 6.1 -39.7°
